CST,Max TemperatureF,Mean TemperatureF,Min TemperatureF,Max Dew PointF,MeanDew PointF,Min DewpointF,Max Humidity, Mean Humidity, Min Humidity, Max Sea Level PressureIn, Mean Sea Level PressureIn, Min Sea Level PressureIn, Max VisibilityMiles, Mean VisibilityMiles, Min VisibilityMiles, Max Wind SpeedMPH, Mean Wind SpeedMPH, Max Gust SpeedMPH,PrecipitationIn, CloudCover, Events, WindDirDegrees
2012-11-1,32,29,26,27,23,19,100,83,74,30.21,30.17,30.15,10,10,10,22,13,25,0.00,8,,13
2012-11-2,28,27,26,28,27,25,100,99,93,30.20,30.17,30.15,10,8,0,9,5,,1.06,8,Snow,81
2012-11-3,30,28,26,30,29,27,100,100,100,30.27,30.23,30.18,10,6,0,8,4,,0.00,8,Fog-Snow,347
2012-11-4,32,30,28,32,30,28,100,100,100,30.25,30.22,30.19,10,8,0,5,2,,0.00,8,Fog,332
2012-11-5,39,32,26,39,33,27,100,99,93,30.24,29.98,29.65,10,9,3,16,5,28,0.03,8,,174
2012-11-6,41,38,32,41,37,32,100,94,87,30.02,29.86,29.67,10,10,2,24,14,37,0.01,8,Rain,314
2012-11-7,41,36,30,39,35,30,100,96,81,30.05,29.92,29.72,10,10,10,21,6,26,0.00,6,,163
2012-11-8,44,35,26,39,32,25,100,91,81,30.28,30.00,29.68,10,10,10,26,14,34,0.00,7,,347
2012-11-9,26,24,21,27,19,9,100,82,58,30.29,30.21,30.07,10,9,2,20,15,26,0.00,8,Snow,30
2012-11-10,28,26,23,28,26,23,100,100,93,30.05,29.80,29.59,10,3,0,40,14,64,1.91,2,Snow,31
2012-11-11,23,19,15,23,18,14,100,92,86,29.76,29.68,29.58,10,7,1,15,10,23,3.31,4,Snow,289
2012-11-12,19,16,14,16,12,7,93,84,68,30.09,29.97,29.77,10,10,6,17,13,31,0.00,6,Snow,281
2012-11-13,21,14,8,18,13,7,100,87,73,30.25,30.19,30.09,10,10,10,9,4,,0.00,5,,321
2012-11-14,35,22,8,32,22,9,100,97,81,30.23,30.06,29.93,10,9,0,15,5,26,0.00,3,Fog,187
2012-11-15,30,20,10,27,14,9,93,73,51,30.42,30.31,29.99,10,10,10,14,9,22,0.00,0,,286
2012-11-16,32,24,17,27,21,16,93,76,64,30.34,30.15,30.02,10,10,10,18,11,26,0.00,1,,159
2012-11-17,32,24,17,30,24,18,100,98,86,30.11,30.06,30.02,10,7,0,8,2,,0.00,3,Fog,328
2012-11-18,32,23,14,32,22,14,100,100,100,30.05,29.95,29.85,10,4,0,10,2,,0.00,3,Fog,120
2012-11-19,39,31,23,36,29,23,100,89,65,30.13,30.01,29.84,10,9,0,9,4,,0.00,1,Fog,284
2012-11-20,44,35,26,36,29,21,100,74,46,30.10,29.91,29.80,10,10,10,20,8,28,0.00,0,,171
2012-11-21,39,36,32,36,34,32,100,98,87,29.88,29.77,29.59,10,9,2,16,6,21,0.00,3,,346
2012-11-22,32,21,10,32,18,7,100,93,79,30.33,29.95,29.59,10,8,1,26,19,40,0.07,7,Snow,332
2012-11-23,14,11,8,10,9,7,92,84,73,30.50,30.43,30.34,10,9,3,21,13,31,0.04,6,Snow,341
2012-11-24,26,17,8,25,15,7,100,91,85,30.32,29.94,29.73,10,10,5,20,10,25,0.01,7,Snow,161
2012-11-25,24,14,5,23,11,0,100,82,67,30.31,30.05,29.86,10,9,1,20,11,29,0.16,6,Snow,321
2012-11-26,28,13,-2,27,8,-6,93,84,67,30.37,30.25,30.09,10,10,10,13,6,18,0.02,7,Snow,254
2012-11-27,28,14,0,27,10,-2,100,88,79,30.24,30.16,30.09,10,9,2,13,6,16,0.12,6,Snow,8
2012-11-28,32,18,5,27,14,3,100,91,75,30.25,30.14,30.01,10,10,5,20,6,24,0.00,5,Snow,300
2012-11-29,14,10,6,10,6,3,92,87,79,30.29,30.25,30.21,10,10,10,15,11,20,0.00,7,Snow,34
2012-11-30,32,23,14,32,21,10,100,96,79,30.21,30.01,29.76,10,6,0,17,9,24,0.00,8,Fog,143